Location: Brachstadt
(48.6975°N, 10.6755°E)
Time: 09:33:10
(UTC+00:00)

Cosmos 1898 Rocket - Pass Details

Date: 18 September 2020
Orbit: 753 x 784 km, 74.0° (Epoch: 27 October)

Event Time Altitude Azimuth Distance (km) Brightness Sun altitude
Rises 18:24:31 0° 207° (SSW) 3,194 6.9 -10.9°
Reaches altitude 10° 18:26:53 10° 210° (SSW) 2,272 6.1 -11.2°
Maximum altitude 18:32:01 72° 294° (WNW) 796 3.8 -12.0°
Drops below altitude 10° 18:37:13 10° 20° (NNE) 2,294 5.9 -12.9°
Sets 18:39:36 0° 22° (NNE) 3,226 6.7 -13.2°
